RH
73 69 72 63 68 68 61 59 54 37 53 71 84 77 55 27 21 22 36 82 84 99 95 87 88 88 82 78 63 46 49 45 60 60 59 72 64 64 66 60 66 73 81 90 87 81 66 59 53 58 64 66 66 61
78 70 82 78 73 71 65 58 52 48 38 63 85 80 60 31 22 20 20 27 76 100 97 83 72 79 83 69 75 49 47 49 48 72 74 81 76 78 73 82 68 78 74 84 77 78 59 67 61 65 54 61 69 70
78 75 73 77 73 71 68 61 53 47 36 58 84 82 63 36 24 23 20 23 44 100 93 81 73 78 70 67 71 51 42 40 40 52 63 78 64 82 76 76 77 74 67 86 80 74 75 69 60 58 60 59 73 79
78 76 74 63 67 66 65 61 52 46 38 54 80 84 67 40 25 22 20 26 43 96 100 85 85 71 68 62 63 58 54 48 51 52 60 77 78 75 81 75 78 76 66 82 90 78 72 72 65 67 70 65 58 62
79 79 71 64 54 59 63 60 52 48 42 55 75 84 67 41 27 19 31 95 48 94 99 94 79 66 61 58 55 57 56 45 45 51 71 77 80 79 84 80 81 70 78 88 91 64 66 68 65 64 57 60 62 52
84 78 65 69 64 48 61 59 51 50 46 55 77 84 66 41 27 18 81 100 100 100 100 100 94 68 56 57 49 42 43 40 44 52 71 68 68 64 82 80 69 61 55 51 64 64 58 64 62 59 59 61 60 59
80 70 62 64 63 52 52 58 52 50 51 61 85 83 64 41 28 24 21 35 52 100 100 99 96 68 57 55 46 46 46 48 50 61 68 66 68 62 84 84 65 60 55 54 53 58 65 60 63 62 56 61 53 47
73 70 64 59 62 55 52 59 54 51 55 70 88 81 61 40 28 22 24 63 80 98 100 99 95 76 59 53 50 48 49 52 58 66 68 68 73 78 83 73 70 66 59 58 59 50 54 57 60 64 51 37 44 51
70 68 64 57 57 57 52 60 57 55 61 78 85 77 48 32 22 40 82 92 97 100 100 99 98 81 60 57 55 53 50 65 66 72 70 64 86 81 75 78 73 65 59 62 57 57 55 55 61 52 35 38 36 47
77 76 66 56 56 59 55 62 61 63 76 95 91 43 24 32 46 51 82 98 100 100 100 98 96 95 65 62 62 59 60 76 72 73 74 79 78 70 65 58 60 57 54 56 58 61 59 61 51 37 26 24 29 38
69 73 62 55 62 60 57 64 66 78 94 96 56 32 32 30 67 97 99 100 100 98 97 94 96 93 64 63 66 62 78 81 70 71 81 86 91 80 68 64 56 52 50 49 45 47 45 26 27 23 20 20 25 29
71 65 59 54 66 60 61 68 75 90 100 79 47 40 32 75 91 98 96 98 100 85 87 95 86 79 62 54 57 69 70 77 71 78 84 88 84 67 65 64 55 54 52 52 51 50 48 28 13 12 11 14 21 26
71 65 55 60 72 62 66 72 80 98 99 64 40 55 64 88 98 99 95 98 99 87 87 88 78 65 62 57 61 71 66 80 75 81 84 87 70 68 61 57 58 53 51 52 55 52 49 23 13 11 11 15 17 18
69 60 53 68 71 62 73 78 97 100 95 68 62 41 87 91 94 95 100 97 98 98 95 94 82 63 57 64 70 64 72 82 89 87 80 82 79 72 61 54 56 55 54 54 54 52 44 17 11 13 13 14 15 15
59 54 65 67 64 66 76 91 98 99 91 63 72 91 87 76 85 88 91 93 74 100 99 93 81 69 72 64 79 79 89 86 87 85 83 60 70 67 62 56 53 55 57 56 52 50 35 13 10 14 18 17 18 16
60 77 77 71 69 72 84 99 99 98 77 71 80 86 77 89 85 75 50 58 75 53 92 99 97 79 67 74 78 75 83 82 71 81 50 60 73 65 57 55 52 55 57 55 52 44 24 10 10 13 17 19 19 17
86 94 72 70 74 85 99 98 98 97 90 91 86 77 80 85 81 50 75 36 56 50 100 99 100 88 71 71 74 78 75 66 40 40 48 58 63 66 56 55 52 55 58 54 52 45 18 9 11 14 14 16 19 18
97 76 73 72 93 98 98 96 90 83 93 87 87 59 76 69 81 76 41 36 40 49 97 100 99 95 70 67 68 62 43 42 41 41 45 65 69 65 57 54 51 56 56 54 50 45 23 9 10 11 12 13 16 19
74 78 86 95 96 96 94 97 85 91 83 78 74 61 62 44 30 28 28 31 56 76 74 98 100 91 64 51 41 32 30 32 34 43 58 67 68 64 58 53 53 57 55 55 52 44 23 8 9 10 12 13 14 15
100 88 97 98 97 71 83 97 80 76 87 72 71 66 52 37 27 25 39 58 73 92 97 100 99 66 46 40 32 28 28 28 39 53 74 78 74 68 57 53 52 54 55 54 54 48 29 10 10 11 12 12 13 14
98 98 98 97 97 83 82 87 74 68 73 79 68 67 52 48 54 56 68 76 96 96 95 67 60 71 70 54 42 38 35 30 27 31 42 77 77 70 63 58 53 55 56 57 56 52 35 8 8 10 12 12 14 14
99 98 97 96 90 77 72 83 86 94 90 96 92 88 86 77 67 71 73 89 82 80 66 38 34 48 62 57 48 31 39 52 50 52 60 69 79 78 70 62 57 56 57 57 57 51 44 12 7 9 11 12 14 15
98 98 96 88 81 71 76 71 68 63 94 71 84 99 96 95 79 73 95 88 78 60 27 23 24 38 48 60 59 34 34 58 64 65 66 66 72 74 69 62 56 53 54 59 57 51 46 19 7 8 10 12 14 14
97 93 86 63 64 85 91 98 96 92 88 81 87 70 53 60 49 89 95 86 70 40 40 40 49 46 55 66 57 44 34 48 68 70 71 73 78 77 70 61 55 54 51 53 56 54 49 35 8 8 9 11 14 14
93 96 70 91 91 98 92 93 87 90 100 86 80 84 77 74 95 96 87 71 53 45 45 44 52 59 55 57 54 46 37 39 52 69 70 69 74 79 76 67 59 53 54 54 56 56 52 44 16 7 8 9 12 13
94 100 90 86 88 90 93 99 97 85 82 89 83 65 72 98 96 97 89 56 56 46 37 41 47 57 59 55 51 46 42 37 50 68 70 70 68 66 70 71 66 63 57 54 53 52 47 44 32 10 7 8 9 11
99 100 88 80 79 84 94 84 70 84 90 90 82 96 92 97 98 87 67 77 78 67 46 29 36 51 50 50 47 42 40 34 25 32 53 65 64 63 63 61 60 56 57 56 55 52 46 39 34 21 7 6 8 8
69 75 98 91 92 90 93 91 96 91 81 61 69 91 97 98 91 98 100 85 66 72 80 69 45 40 48 47 45 38 34 36 44 57 72 78 76 75 74 72 69 59 54 54 55 56 54 50 38 26 15 6 5 6
84 72 69 84 67 61 63 74 69 43 35 51 81 82 89 92 86 70 60 66 60 60 66 74 60 52 50 48 48 46 42 34 42 57 70 75 77 78 82 81 77 72 66 60 56 55 52 48 48 44 31 17 7 5
82 75 85 80 85 83 42 46 58 49 48 48 65 77 71 63 52 48 54 58 67 70 62 71 72 58 52 49 48 48 44 39 36 33 37 46 46 60 68 77 82 78 71 66 63 60 60 59 56 55 50 44 38 27
47 56 62 59 65 43 43 36 34 36 43 52 58 75 72 60 45 57 63 56 60 65 65 72 76 52 50 49 46 45 44 43 41 40 42 43 48 58 67 67 71 76 73 69 64 61 58 58 54 53 51 46 41 38
61 58 67 84 56 43 43 50 60 69 74 83 86 78 72 76 94 94 52 51 60 51 50 68 66 45 38 40 44 42 40 39 39 39 44 52 61 66 69 68 64 65 69 68 64 56 51 51 51 51 48 46 44 45
54 51 53 60 60 58 49 49 69 77 69 69 76 80 85 90 94 81 60 46 37 39 48 53 43 41 41 37 35 42 44 40 37 36 41 49 65 70 71 69 68 65 64 62 59 56 54 52 51 50 50 50 50 50
Wind_Speed
15 14 13 13 14 13 12 11 11 10 10 10 9 10 11 13 16 17 11 10 14 6 19 10 6 13 16 4 2 4 4 2 3 4 3 2 2 3 3 3 4 4 4 2 2 3 3 3 5 1 3 10 10 12
16 14 15 14 15 13 12 12 11 11 11 10 9 10 11 12 15 18 17 13 11 11 15 25 23 11 11 10 5 2 1 4 4 4 1 3 2 2 3 2 3 2 4 4 3 4 4 8 10 9 9 14 12 12
15 15 15 15 16 14 13 12 12 11 11 11 9 9 10 12 14 18 20 19 14 7 16 12 6 8 2 2 4 1 1 3 3 3 7 2 3 3 3 3 3 4 3 4 4 5 9 19 17 18 17 9 7 8
15 14 13 15 16 15 13 12 11 11 11 11 9 9 10 12 14 17 21 19 11 6 4 7 9 5 5 4 6 7 2 3 7 4 4 3 3 3 2 3 3 3 4 5 4 9 20 16 18 15 13 13 13 13
15 14 13 13 13 14 13 12 12 11 10 10 9 9 11 13 14 16 15 10 4 3 4 11 15 6 2 2 3 6 7 6 4 3 3 2 4 4 1 2 1 5 6 4 4 16 14 14 14 12 15 15 14 13
17 15 14 14 13 14 13 12 12 11 10 10 9 9 11 13 14 17 3 6 2 4 5 3 8 4 2 4 5 7 8 5 3 4 4 4 4 3 3 1 0 4 9 14 13 14 22 21 16 13 16 15 13 12
18 15 14 14 14 14 14 12 12 11 10 10 9 9 11 13 14 10 7 14 12 6 4 4 6 4 2 5 5 5 6 4 3 4 3 4 3 3 3 3 8 11 17 29 24 30 24 20 17 15 14 14 13 13
19 17 15 14 14 14 14 13 12 10 10 10 9 10 12 14 16 14 10 6 6 6 4 3 3 5 4 3 3 4 3 3 4 4 3 3 5 2 2 3 15 23 31 29 30 17 25 22 20 17 14 14 15 13
20 19 17 16 15 15 14 13 12 10 9 10 9 10 13 12 6 4 3 7 7 6 4 3 2 3 3 3 3 3 2 2 2 2 2 4 0 2 7 24 31 33 27 31 21 26 26 23 21 17 15 14 12 12
19 18 18 18 17 16 14 13 12 9 10 8 7 4 4 3 8 7 3 3 6 6 5 4 5 3 3 2 2 3 2 2 2 2 6 2 2 2 21 30 33 28 37 31 35 30 28 25 22 18 15 12 12 12
21 19 17 17 17 17 15 14 12 13 12 9 4 4 6 8 3 2 3 4 5 3 6 6 7 3 4 2 3 1 2 1 2 3 4 1 2 6 29 34 35 32 33 26 21 25 24 24 25 22 17 14 13 13
23 21 19 18 18 17 16 15 16 19 8 7 3 5 5 2 1 2 3 3 3 3 5 5 7 10 4 5 3 3 2 1 3 6 3 2 4 31 37 39 33 36 33 29 25 27 25 23 22 20 18 16 15 14
24 22 21 19 19 19 17 17 20 19 14 8 4 3 2 1 2 4 4 2 2 2 3 5 4 9 5 5 4 2 2 4 10 1 4 4 16 41 43 42 39 37 31 27 29 26 25 23 23 21 20 18 17 16
24 22 20 19 20 20 19 20 23 20 13 4 5 3 4 3 4 3 3 4 8 10 18 15 7 5 5 3 3 3 2 4 2 2 5 4 30 43 47 43 44 41 35 31 31 28 26 26 24 22 19 19 17 16
22 21 20 20 21 22 21 24 25 25 7 6 5 4 6 7 5 8 10 10 11 14 21 10 3 4 3 3 3 3 3 4 5 5 4 18 42 49 51 47 44 43 38 35 33 30 29 27 26 24 21 19 17 16
20 18 22 22 23 23 25 26 28 21 7 5 5 3 6 3 3 0 6 12 13 24 18 5 3 3 5 4 4 6 6 6 4 4 7 26 45 51 54 50 46 44 39 38 36 33 31 30 28 25 23 21 20 18
19 24 24 24 25 25 30 34 17 6 5 4 6 10 13 10 8 8 3 10 14 16 3 6 3 7 1 4 3 4 5 4 4 5 9 31 51 53 55 51 48 45 42 40 37 34 32 31 28 27 26 24 22 19
25 25 21 27 30 42 34 17 9 7 6 10 6 7 13 12 6 6 8 13 13 8 7 4 8 3 4 7 3 5 15 12 8 5 11 28 43 50 53 53 50 46 44 41 38 36 35 35 34 30 26 25 24 23
23 24 22 33 39 26 6 8 6 6 9 5 12 15 12 14 19 17 15 14 14 10 5 6 5 4 4 6 8 15 20 18 9 7 14 27 44 50 52 52 49 47 44 42 40 38 38 38 35 31 29 28 27 25
21 20 32 45 36 10 6 5 10 4 6 7 9 9 9 12 17 21 17 10 13 5 5 4 5 5 8 15 15 17 13 10 14 14 21 30 42 48 53 53 51 47 44 43 40 38 38 38 36 32 31 30 28 26
22 25 37 29 17 8 5 7 7 7 5 6 5 10 7 12 14 18 17 17 16 7 7 14 29 29 23 22 15 12 15 15 17 21 27 37 42 49 51 52 50 49 48 46 43 41 40 42 39 36 33 30 27 24
22 39 30 20 5 4 4 8 5 6 4 4 4 5 5 6 13 15 13 17 10 16 20 32 37 37 29 23 17 9 11 11 19 21 22 32 43 47 52 55 54 52 51 49 45 42 41 42 40 37 34 31 28 25
44 35 12 6 4 4 4 8 5 5 3 3 2 2 5 6 6 9 8 13 18 28 32 33 31 32 34 25 16 7 10 6 16 19 22 31 39 46 51 54 54 53 52 50 46 42 41 41 41 38 35 32 30 27
31 9 5 6 4 4 6 4 4 3 3 1 2 3 4 6 8 9 5 11 21 23 26 27 26 28 32 26 25 18 10 6 11 16 21 30 37 42 48 52 53 51 48 47 47 43 41 41 42 40 37 35 33 31
9 5 6 3 3 4 4 3 5 4 3 5 3 3 4 5 4 4 4 8 24 25 26 26 25 30 37 35 27 20 13 11 13 18 22 26 32 39 43 47 50 49 47 48 49 46 45 43 43 43 41 38 36 35
4 6 8 9 10 6 7 4 5 7 4 4 5 6 5 3 5 6 4 20 29 29 29 33 31 34 39 40 33 29 25 17 16 19 22 28 31 36 45 49 51 51 50 46 46 46 45 44 43 44 43 41 38 36
4 5 9 9 9 6 5 6 5 3 5 5 3 3 3 6 5 5 4 23 15 18 32 29 33 36 36 35 34 29 26 25 16 13 17 24 24 29 35 45 52 52 49 48 45 44 44 45 44 44 45 44 42 41
4 10 7 14 8 8 3 1 2 4 4 7 5 4 5 4 4 4 12 37 40 32 22 26 34 34 36 35 34 27 24 22 21 20 17 19 28 31 32 32 37 45 45 45 44 42 41 42 43 44 46 46 45 43
4 8 11 5 5 5 8 8 7 8 10 13 5 8 9 17 31 49 51 46 46 45 36 22 30 36 36 38 39 38 33 28 27 27 27 26 28 32 33 32 32 35 38 41 39 38 37 38 39 40 40 42 43 43
7 15 8 7 6 6 10 12 9 13 17 22 24 28 40 52 53 52 53 54 50 46 33 25 27 34 40 39 37 35 35 33 31 29 26 27 28 27 29 31 32 31 31 33 34 36 36 36 36 36 37 37 36 35
8 15 6 8 6 16 23 25 29 32 33 37 37 34 38 43 58 60 45 35 29 30 29 26 30 34 37 41 41 41 42 40 37 34 29 22 19 23 27 27 29 29 28 28 29 30 31 34 36 36 36 37 36 35
14 14 9 4 8 25 24 24 25 25 29 29 31 32 35 29 27 33 24 15 21 25 27 26 31 35 34 36 38 38 38 36 34 32 29 23 21 18 21 25 28 28 27 26 26 26 26 28 30 32 32 32 30 30
20 19 21 15 7 6 11 12 6 8 14 21 29 32 29 22 12 18 18 16 14 16 19 23 24 24 24 27 32 34 32 28 25 24 24 22 20 19 20 23 27 27 27 26 25 25 24 24 24 25 25 23 22 21
Wind_Direction
263 254 260 248 250 257 259 265 270 267 261 267 283 300 321 335 336 346 1 326 329 298 296 291 304 312 317 300 109 145 84 4 51 69 114 176 123 201 93 183 171 150 131 183 85 71 331 26 68 335 163 71 108 93
263 246 244 243 245 251 256 262 263 269 256 261 275 293 313 329 332 337 345 345 310 276 286 299 295 308 306 266 268 168 164 160 157 93 87 118 111 84 140 196 28 55 168 158 152 199 248 83 105 106 130 109 112 120
261 243 243 242 242 248 255 261 262 263 258 256 270 286 306 320 328 332 336 340 334 294 303 296 301 336 303 204 197 206 160 153 145 116 145 145 105 125 145 228 104 355 123 91 88 5 76 101 103 108 108 100 116 110
243 232 243 244 241 245 252 259 261 260 257 253 263 281 299 312 321 328 328 325 308 301 285 298 286 324 281 225 215 217 283 158 138 124 95 108 115 174 182 150 127 179 113 120 68 103 92 100 114 125 105 106 107 105
224 238 245 244 241 241 248 254 257 259 255 251 257 277 294 305 318 327 327 332 268 276 309 293 292 33 181 224 177 183 185 173 150 94 69 110 127 111 46 92 88 175 160 142 198 173 121 139 141 128 114 113 113 111
230 238 243 242 242 240 244 249 253 257 254 250 254 272 289 302 320 337 337 19 350 308 303 310 303 324 113 173 155 145 162 155 119 102 104 109 121 115 99 116 267 161 163 133 134 152 135 141 136 129 120 120 114 107
232 237 241 242 241 241 240 246 250 253 250 247 254 267 283 299 312 324 299 297 301 285 281 286 296 314 146 160 142 132 130 125 112 105 91 131 122 124 101 141 156 148 140 139 139 136 125 143 135 138 129 125 120 112
232 237 241 243 241 240 237 242 246 247 244 244 255 268 283 293 300 303 295 292 285 268 276 284 275 301 168 139 120 128 124 118 68 104 119 114 121 89 100 142 149 144 143 142 146 151 142 142 139 140 136 135 126 118
232 236 239 241 240 236 235 237 238 237 236 239 256 279 293 288 287 301 298 277 264 231 296 285 295 238 173 108 109 106 113 63 109 103 140 127 356 195 177 148 148 152 150 151 146 142 144 143 145 145 145 143 134 129
230 233 236 236 236 231 231 229 226 220 216 233 261 276 268 288 302 288 294 234 211 209 227 257 270 266 182 135 88 111 60 131 128 243 136 95 228 247 172 161 158 157 156 155 145 147 152 151 155 156 152 144 133 129
230 231 235 233 231 226 224 218 209 201 199 217 226 244 280 303 300 286 272 231 189 224 208 247 244 279 211 128 149 167 164 129 138 242 133 188 275 186 166 163 162 164 162 165 166 160 162 157 156 156 157 151 143 133
228 229 232 231 227 222 219 209 204 199 189 193 235 279 292 264 258 274 250 226 226 228 203 217 229 215 225 197 122 173 123 79 224 146 100 226 236 169 168 169 169 169 169 171 169 163 163 163 159 157 155 149 144 136
225 227 228 229 222 217 211 203 205 197 197 192 224 260 319 109 238 231 220 239 216 227 328 270 237 184 197 191 100 119 138 214 131 110 219 224 167 169 171 171 172 172 173 170 167 166 166 166 165 165 157 152 144 138
222 226 228 224 218 211 202 200 195 192 164 212 202 279 170 220 239 229 0 342 321 314 325 323 263 194 171 134 143 145 174 118 170 234 232 204 172 170 175 176 176 176 175 171 167 171 172 172 169 172 166 159 151 143
221 223 221 218 208 200 197 192 191 188 148 216 191 221 208 236 281 319 326 324 337 340 340 331 253 251 172 140 181 116 130 231 212 226 227 182 173 173 176 180 181 178 176 173 171 176 177 175 176 175 173 169 164 160
211 215 214 200 195 194 189 189 192 176 188 218 220 250 239 294 279 139 358 336 340 337 325 221 242 269 208 152 143 203 162 219 244 218 225 176 172 178 180 183 183 180 177 176 177 180 179 180 182 178 176 178 177 175
202 213 202 194 190 188 188 180 167 139 189 232 237 234 244 273 259 276 320 329 337 347 320 313 221 231 130 150 196 179 205 213 223 232 199 184 180 180 183 184 182 181 179 179 180 184 182 182 184 184 183 182 181 181
212 205 206 191 185 170 157 163 151 183 210 229 235 242 235 242 219 241 282 305 313 330 328 330 305 256 216 158 220 227 242 245 258 274 201 186 182 183 185 185 183 182 181 181 184 187 187 186 190 190 186 185 186 186
208 200 196 195 187 153 126 151 155 184 218 221 242 250 256 265 272 278 282 288 281 278 274 268 249 241 238 220 210 220 236 249 234 209 189 189 186 186 186 187 185 184 184 184 186 192 193 193 194 192 190 192 192 193
203 215 195 179 155 136 121 134 176 194 202 220 227 235 237 257 279 290 289 250 247 210 214 228 247 242 256 261 279 289 291 266 224 174 178 185 190 189 189 189 187 187 188 189 191 194 196 198 201 199 198 200 197 198
171 174 157 153 139 118 133 158 171 200 202 225 241 224 250 266 268 269 257 239 211 229 211 245 270 265 283 300 289 283 275 256 241 230 203 187 192 194 192 193 192 190 191 191 193 197 201 202 201 202 203 204 205 206
168 169 152 156 118 124 130 175 160 167 208 232 233 214 241 250 253 250 242 197 223 224 224 246 263 268 275 292 287 322 315 256 229 223 206 193 185 190 194 195 193 193 195 196 197 201 204 205 205 207 206 207 209 210
161 153 131 109 127 149 147 177 180 199 183 212 200 228 230 229 246 253 216 208 219 231 242 252 265 270 266 266 283 314 324 264 222 221 209 199 195 194 196 198 198 198 197 200 202 204 208 208 208 210 210 210 212 213
157 126 109 140 146 158 159 164 204 235 219 217 185 252 245 237 254 231 229 207 220 232 238 245 250 245 250 252 253 268 302 273 225 221 210 199 195 195 200 201 202 205 206 204 203 206 211 213 211 212 214 214 216 217
111 144 146 127 151 115 155 182 195 197 228 203 228 257 257 247 242 230 220 231 232 237 240 236 237 226 233 240 246 247 255 259 236 220 213 212 207 198 199 204 206 208 209 206 207 209 210 213 214 214 215 217 219 221
129 168 166 161 162 168 188 188 203 203 183 203 232 240 257 244 215 240 236 234 234 233 232 227 227 227 227 233 239 242 239 251 236 229 224 217 216 213 206 202 205 207 210 212 214 212 213 216 217 217 218 220 222 225
134 191 181 172 171 171 203 237 221 181 186 205 236 218 204 243 232 223 48 25 339 267 235 230 224 223 225 226 229 240 238 237 245 252 243 229 231 229 225 217 212 214 211 210 213 215 218 218 220 221 222 224 226 229
140 159 153 174 180 191 173 188 181 217 218 229 222 190 281 228 238 334 314 324 329 332 315 248 230 225 225 228 224 222 221 217 218 223 230 230 229 228 229 228 228 224 219 218 217 217 220 223 225 226 227 227 229 232
158 169 163 160 151 188 211 199 214 221 242 259 260 277 279 277 294 303 303 305 308 311 308 287 242 228 229 229 229 228 230 224 215 210 216 217 215 220 226 225 224 223 223 222 222 224 226 226 226 230 234 237 238 239
190 174 170 169 158 212 224 220 240 255 267 270 271 272 275 279 287 296 297 295 291 290 287 284 255 238 229 224 224 224 225 229 234 228 227 234 235 226 217 220 219 220 219 219 220 221 223 224 226 228 232 236 240 244
192 184 206 209 222 239 244 255 267 274 278 278 275 264 267 287 293 290 289 282 280 275 261 247 232 226 227 227 224 220 220 223 227 232 236 243 245 235 219 213 213 212 212 212 214 219 222 223 223 224 227 231 235 239
191 201 196 196 245 261 265 263 266 270 269 267 265 268 275 278 279 288 286 280 252 247 229 219 216 219 221 225 228 229 231 233 232 231 230 228 231 231 220 212 207 204 203 206 209 213 216 220 224 227 231 235 240 244
210 218 228 238 246 240 264 267 272 275 268 268 270 264 256 246 247 257 275 274 264 236 220 211 207 212 221 224 221 221 225 227 229 233 228 218 214 216 212 210 206 201 201 202 204 207 211 217 222 225 230 236 242 246